W6DSP Weather Reports


Display with metric or nautical units.
time (UTC)temp
F
wind
direction
speed
MPH
gust
MPH
rain 1hr
in
rain 24hr
in
rain mn
in
humidity
%
barometer
mb
20260504081958 50 162 0.0 8.0 0.00 0.02 0.00 77 1007.9
20260504080825 49 182 0.0 8.0 0.00 0.02 0.00 79 1008.0
20260504050748 46 130 0.0 2.0 0.00 0.02 0.00 86 1009.9
20260504045613 46 159 0.0 0.0 0.00 0.02 0.00 85 1009.9
20260504044354 46 150 0.0 0.0 0.00 0.02 0.00 84 1010.0
20260504043145 47 113 0.0 3.0 0.00 0.02 0.00 84 1010.0
20260504042007 47 136 0.0 3.0 0.00 0.02 0.00 84 1010.1
20260504040741 47 148 1.0 4.0 0.00 0.02 0.00 83 1010.3
20260504035558 47 138 1.0 4.0 0.00 0.02 0.02 83 1010.3
20260504034354 47 123 1.0 3.0 0.00 0.02 0.02 83 1010.4
20260504033201 47 130 0.0 3.0 0.00 0.02 0.02 82 1010.5
20260504032018 48 123 1.0 4.0 0.00 0.02 0.02 81 1010.7
20260504030804 48 148 1.0 7.0 0.00 0.02 0.02 81 1010.8
20260504025546 48 136 1.0 7.0 0.00 0.02 0.02 80 1010.9
20260504024404 49 152 1.0 7.0 0.00 0.02 0.02 80 1011.1
20260504023211 48 143 1.0 4.0 0.00 0.02 0.02 80 1011.0
20260504022026 48 139 0.0 8.0 0.00 0.02 0.02 80 1011.1
20260504020836 50 126 3.0 8.0 0.00 0.02 0.02 78 1011.1
20260504015643 49 120 3.0 8.0 0.00 0.02 0.02 78 1011.2
20260504014408 50 124 3.0 8.0 0.00 0.02 0.02 76 1011.1
20260504013215 50 123 1.0 8.0 0.00 0.02 0.02 76 1011.2
20260504012035 51 199 3.0 9.0 0.00 0.02 0.02 75 1011.3
20260504010859 51 117 3.0 9.0 0.00 0.02 0.02 75 1011.1
20260504005728 51 139 3.0 11.0 0.00 0.02 0.02 75 1011.1
20260504004532 52 98 3.0 12.0 0.00 0.02 0.02 75 1011.2
20260504003336 52 116 3.0 12.0 0.00 0.02 0.02 76 1011.1
20260504002108 52 144 3.0 11.0 0.00 0.02 0.02 77 1011.4
20260504000915 52 119 3.0 9.0 0.00 0.02 0.02 76 1011.6
20260503235733 52 155 3.0 9.0 0.00 0.02 0.02 76 1011.6
20260503234501 52 119 4.0 9.0 0.00 0.02 0.02 76 1011.8
20260503233229 52 135 3.0 11.0 0.00 0.02 0.02 76 1012.0
20260503232008 52 109 3.0 11.0 0.00 0.02 0.02 76 1012.0
20260503230833 52 162 3.0 8.0 0.00 0.02 0.02 77 1012.1
20260503225602 52 134 3.0 8.0 0.00 0.02 0.02 79 1012.3
20260503224410 52 118 3.0 11.0 0.00 0.02 0.02 79 1012.4
20260503223206 52 126 4.0 9.0 0.00 0.02 0.02 80 1012.4
20260503222001 50 117 3.0 7.0 0.00 0.02 0.02 83 1012.5
20260503220727 50 155 3.0 9.0 0.00 0.02 0.02 83 1012.6
20260503215544 49 111 3.0 11.0 0.00 0.02 0.02 83 1012.7
20260503214408 49 152 1.0 7.0 0.00 0.02 0.02 84 1012.8
20260503213150 49 92 4.0 14.0 0.00 0.01 0.01 84 1012.9
20260503212008 49 119 3.0 9.0 0.00 0.01 0.01 84 1013.1
20260503210736 49 123 4.0 11.0 0.00 0.01 0.01 83 1013.3
20260503205558 49 134 3.0 12.0 0.00 0.01 0.01 84 1013.6
20260503204327 48 107 3.0 12.0 0.00 0.01 0.01 82 1014.0
20260503203148 49 114 1.0 7.0 0.00 0.00 0.00 80 1014.5
20260503201956 50 154 3.0 14.0 0.00 0.00 0.00 77 1014.8
20260503200738 51 252 4.0 16.0 0.00 0.00 0.00 74 1015.4
20260503195528 53 255 5.0 24.0 0.00 0.00 0.00 69 1015.5
20260503194312 55 271 4.0 24.0 0.00 0.00 0.00 65 1015.4
20260503193035 56 252 5.0 19.0 0.00 0.00 0.00 60 1015.2
20260503191826 58 277 4.0 19.0 0.00 0.00 0.00 55 1015.0
20260503190553 60 227 1.0 11.0 0.00 0.00 0.00 53 1014.7
20260503185320 60 332 3.0 12.0 0.00 0.00 0.00 51 1014.8
20260503184139 60 245 3.0 12.0 0.00 0.00 0.00 53 1014.9
20260503182914 62 132 4.0 18.0 0.00 0.00 0.00 48 1014.9
20260503181655 61 304 4.0 20.0 0.00 0.00 0.00 49 1015.0
20260503180510 62 161 4.0 20.0 0.00 0.00 0.00 47 1015.2
20260503175304 61 171 3.0 15.0 0.00 0.00 0.00 50 1015.4
20260503174048 61 277 3.0 14.0 0.00 0.00 0.00 49 1015.6
20260503172834 61 250 1.0 12.0 0.00 0.00 0.00 47 1015.6
20260503171556 62 119 3.0 11.0 0.00 0.00 0.00 48 1015.9
20260503170320 61 172 3.0 9.0 0.00 0.00 0.00 46 1016.3
20260503150311 58 265 3.0 14.0 0.00 0.00 0.00 51 1017.6
20260503130255 48 209 1.0 11.0 0.00 0.00 0.00 62 1018.1
20260503120216 43 299 0.0 1.0 0.00 0.00 0.00 71 1018.2
20260503110227 39 198 0.0 2.0 0.00 0.00 0.00 79 1017.7
20260503100213 38 120 0.0 1.0 0.00 0.00 0.00 78 1017.5